Voltar ao catálogo

CZ-6A DEB

AtivoSSO
NORAD 54608·DEBRIS·🇨🇳 China

Lançado Nov 11, 2022 de Taiyuan Satellite Launch Center

Loading…

Próximas Passagens (próximas 24 horas)

TLE

AtualizadoSource: Space-Track

Época: Sep 14, 2026, 21:53 UTC

1 54608U 22151NJ  26257.91184167  .00000557  00000-0  34854-3 0  9997
2 54608  98.8610 247.1785 0065218 100.5896 260.2628 14.07597311196462

Acompanhe CZ-6A DEB em tempo real com AllMySat

Download on the App Store